Tracking 34794 objects as of 19-Jul-2026
HD Live streaming from Space Station
objects crossing your sky now

STARLINK-32426

Track STARLINK-32426 now!
10-day predictions
STARLINK-32426 is classified as:


NORAD ID: 61681
Int'l Code: 2024-193W
Perigee: 481.6 km
Apogee: 483.2 km
Inclination: 53.2 °
Period: 94.1 minutes
Semi major axis: 6853 km
RCS: Unknown
Launch date: October 26, 2024
Source: United States (US)
Launch site: AIR FORCE EASTERN TEST RANGE (AFETR)
Your satellite tracking list
Your tracking list is empty




NASA's NSSDC Master Catalog

Two Line Element Set (TLE):
1 61681U 24193W   26199.71968471 -.00000353  00000-0  21791-6 0  9999
2 61681  53.1584 202.6844 0001163  77.9805 282.1326 15.30189195 96587
Source of the keplerian elements: AFSPC